KA2QBS Weather Reports


Display with metric or nautical units.
time (UTC)temp
F
wind
direction
speed
MPH
gust
MPH
rain 1hr
in
rain 24hr
in
rain mn
in
humidity
%
barometer
mb
20260831121532 65 274 0.0 0.0 0.00 0.05 0.00 99 1020.9
20260831120038 65 274 0.0 0.0 0.00 0.05 0.00 99 1021.2
20260831114534 65 274 0.0 0.0 0.00 0.05 0.00 99 1021.2
20260831113028 64 274 0.0 0.0 0.00 0.05 0.00 99 1021.1
20260831111526 64 274 0.0 0.0 0.00 0.05 0.00 99 1021.0
20260831110024 64 274 0.0 0.0 0.00 0.05 0.00 99 1020.9
20260831104523 63 274 0.0 0.0 0.00 0.05 0.00 99 1020.8
20260831103023 63 274 0.0 0.0 0.00 0.05 0.00 99 1020.7
20260831101523 63 274 0.0 0.0 0.00 0.05 0.00 99 1020.4
20260831100022 63 274 0.0 0.0 0.00 0.05 0.00 99 1020.4
20260831094521 63 274 0.0 0.0 0.00 0.05 0.00 99 1020.4
20260831093033 63 274 0.0 0.0 0.00 0.05 0.00 99 1020.3
20260831091520 63 274 0.0 0.0 0.00 0.05 0.00 99 1020.3
20260831090019 63 274 0.0 0.0 0.00 0.05 0.00 99 1020.2
20260831084522 63 274 0.0 0.0 0.00 0.05 0.00 99 1020.3
20260831083021 63 274 0.0 0.0 0.00 0.05 0.00 99 1020.1
20260831081518 63 274 0.0 0.0 0.00 0.05 0.00 99 1020.3
20260831080021 63 274 0.0 0.0 0.00 0.05 0.00 99 1020.2
20260831074517 64 274 0.0 0.0 0.00 0.05 0.00 99 1020.3
20260831073016 64 274 0.0 0.0 0.00 0.05 0.00 99 1020.2
20260831071527 64 274 0.0 0.0 0.00 0.05 0.00 99 1020.1
20260831070015 64 274 0.0 0.0 0.00 0.05 0.00 99 1020.2
20260831064514 64 274 0.0 0.0 0.00 0.05 0.00 99 1020.1
20260831063013 64 274 0.0 0.0 0.00 0.05 0.00 99 1020.3
20260831061512 64 274 0.0 0.0 0.00 0.05 0.00 99 1020.3
20260831060012 64 274 0.0 0.0 0.00 0.05 0.00 99 1020.4
20260831054511 64 274 0.0 0.0 0.00 0.05 0.00 99 1020.4
20260831053018 64 274 0.0 0.0 0.00 0.05 0.00 99 1020.4
20260831051509 63 274 0.0 0.0 0.00 0.05 0.00 99 1020.4
20260831050008 64 274 0.0 0.0 0.00 0.05 0.00 99 1020.5
20260831044508 64 274 0.0 0.0 0.00 0.05 0.00 99 1020.6
20260831043006 64 274 0.0 0.0 0.00 0.05 0.00 98 1020.9
20260831041505 64 274 0.0 0.0 0.00 0.05 0.00 98 1020.8
20260831040002 64 274 0.0 0.0 0.00 0.05 0.05 99 1020.6
20260831034501 64 274 0.0 0.0 0.00 0.05 0.05 99 1020.9
20260831033002 64 274 0.0 0.0 0.00 0.05 0.05 99 1020.9
20260831031504 64 274 0.0 0.0 0.00 0.05 0.05 99 1020.8
20260831030101 64 274 0.0 0.0 0.00 0.05 0.05 98 1020.8
20260831024603 64 274 0.0 0.0 0.00 0.05 0.05 98 1020.7
20260831023100 64 274 0.0 0.0 0.00 0.05 0.05 98 1020.6
20260831021559 63 274 0.0 0.0 0.00 0.05 0.05 98 1020.5
20260831020059 63 274 0.0 0.0 0.00 0.05 0.05 98 1020.5
20260831014557 63 274 0.0 0.0 0.00 0.05 0.05 98 1020.5
20260831013057 63 274 0.0 0.0 0.01 0.05 0.05 98 1020.4
20260831011557 63 274 0.0 0.0 0.01 0.05 0.05 98 1020.3
20260831010056 63 274 0.0 0.0 0.01 0.05 0.05 98 1020.3
20260831004556 63 274 0.0 0.0 0.01 0.05 0.05 98 1020.1
20260831003100 63 274 0.0 0.0 0.00 0.04 0.04 98 1019.9
20260831001559 63 274 0.0 0.0 0.00 0.04 0.04 98 1019.6
20260831000057 63 274 0.0 0.0 0.00 0.04 0.04 97 1019.5
20260830234601 63 274 0.0 0.0 0.00 0.04 0.04 97 1019.3
20260830233053 63 274 0.0 0.0 0.00 0.04 0.04 97 1019.2
20260830231552 64 274 0.0 0.0 0.00 0.04 0.04 97 1019.1
20260830230053 64 274 0.0 0.0 0.00 0.04 0.04 97 1019.2
20260830224555 64 274 0.0 0.0 0.00 0.04 0.04 97 1019.0
20260830223052 64 274 0.0 0.0 0.00 0.04 0.04 97 1019.0
20260830221551 64 274 0.0 0.0 0.00 0.04 0.04 97 1019.1
20260830220056 64 274 0.0 3.0 0.00 0.04 0.04 96 1019.1
20260830214612 64 274 0.0 0.0 0.00 0.04 0.04 97 1019.2
20260830213049 64 274 0.0 1.0 0.00 0.04 0.04 96 1019.2
20260830211555 64 274 0.0 2.0 0.00 0.04 0.04 96 1019.3
20260830210051 64 274 0.0 1.0 0.02 0.04 0.04 95 1019.4
20260830204548 64 274 0.0 1.0 0.03 0.04 0.04 95 1019.4
20260830203051 65 275 0.0 0.0 0.04 0.04 0.04 94 1019.4
20260830201548 65 275 0.0 1.0 0.04 0.04 0.04 92 1019.4
20260830200052 66 275 0.0 7.0 0.02 0.02 0.02 89 1019.3
20260830194545 68 302 0.0 2.0 0.01 0.01 0.01 85 1019.1
20260830193107 70 292 0.0 7.0 0.00 0.00 0.00 80 1019.1
20260830191545 71 254 0.0 7.0 0.00 0.00 0.00 78 1019.1
20260830190044 72 281 0.0 4.0 0.00 0.00 0.00 75 1019.0
20260830184543 73 296 0.0 3.0 0.00 0.00 0.00 72 1019.0
20260830183042 75 298 0.0 5.0 0.00 0.00 0.00 72 1019.0
20260830181542 76 296 0.0 4.0 0.00 0.00 0.00 68 1018.9
20260830180043 76 266 0.0 3.0 0.00 0.00 0.00 70 1018.9
20260830174541 75 270 0.0 3.0 0.00 0.00 0.00 67 1019.0
20260830173050 74 269 0.0 4.0 0.00 0.00 0.00 71 1019.0
20260830171531 74 274 0.0 6.0 0.00 0.00 0.00 71 1019.4
20260830170030 73 138 0.0 2.0 0.00 0.00 0.00 74 1019.5
20260830164525 72 138 0.0 0.0 0.00 0.00 0.00 74 1019.7
20260830163034 72 138 0.0 2.0 0.00 0.00 0.00 73 1019.8
20260830161521 72 137 0.0 0.0 0.00 0.00 0.00 75 1019.8
20260830160020 72 137 0.0 0.0 0.00 0.00 0.00 73 1020.0
20260830154521 71 137 0.0 0.0 0.00 0.00 0.00 75 1020.1
20260830153017 71 137 0.0 2.0 0.00 0.00 0.00 75 1020.2
20260830151516 71 137 0.0 0.0 0.00 0.00 0.00 74 1020.5
20260830150015 70 137 0.0 2.0 0.00 0.00 0.00 73 1020.2
20260830144513 69 137 0.0 4.0 0.00 0.00 0.00 75 1020.1
20260830143010 69 139 0.0 0.0 0.00 0.00 0.00 76 1020.2
20260830141508 68 139 0.0 2.0 0.00 0.00 0.00 75 1020.4
20260830140005 67 139 0.0 3.0 0.00 0.00 0.00 76 1020.5
20260830134504 67 140 0.0 4.0 0.00 0.00 0.00 75 1020.4
20260830133001 67 126 2.0 4.0 0.00 0.00 0.00 77 1020.6
20260830131559 66 126 2.0 4.0 0.00 0.00 0.00 78 1020.7
20260830130056 65 138 0.0 0.0 0.00 0.00 0.00 81 1020.7
20260830124553 64 138 0.0 2.0 0.00 0.00 0.00 80 1020.8
20260830123057 64 143 1.0 7.0 0.00 0.00 0.00 81 1020.9